Weather in Colon

Argentina     32°13′34″S   58°09′09″W
temp.,
°C
wind,
m/s
gust,
m/s
humid.,
%
clouds,
%
prec.,
mm/h
press.,
hPa
HPBL,
m
20 april, tue
tue2000:00+16ene514740 0.0 1018314
03:00+15e412860 0.0 1018312
06:00+13ene411950 0.0 1019248
09:00+17ene511770 0.0 1020354
12:00+23ene68570 0.0 1019920
15:00+25ene67470 0.0 10171384
18:00+21e49660 0.0 1016197
21:00+19e615740 0.0 1017435
21 april, wed
wed2100:00+18ene616730 0.0 1017460
03:00+16ene615762 0.0 1017470
06:00+15ene514870 0.0 1017428
09:00+17ene7138410 0.0 1017510
12:00+24ene79595 0.0 1017924
15:00+27ne6847100 0.0 10141449
18:00+24e466527 0.0 101496
21:00+20e41068100 0.0 1015197
22 april, thu
thu2200:00+20ene51265100 0.0 1016301
03:00+19ene51373100 0.0 1016490
06:00+17ene51288100 0.4 1015353
09:00+17ene41189100 0.9 1017393
12:00+21ene5876100 0.1 1016535
15:00+26ne4651100 0.1 10131049
18:00+24e226287 0.0 101321
21:00+20ene410745 0.0 1013163
23 april, fri
fri2300:00+18ene310695 0.0 1014212
03:00+17ene412765 0.0 1013274
06:00+16ne412815 0.0 1013291
09:00+18ne512680 0.0 1014337
12:00+25nne57515 0.0 1013778
15:00+28nne2344100 0.0 10111371
18:00+24sse3359100 0.0 101031
21:00+21s5976100 0.1 1011206
24 april, sat
sat2400:00+17ssw71197100 3.5 1013363
03:00+18sse5899100 11.4 1012311
06:00+18s3798100 0.1 1013480
09:00+18ssw4794100 0.3 1016481
12:00+20ssw5780100 0.4 1016839
15:00+19ssw698697 1.3 1016769
18:00+18s712731 0.3 1017674
21:00+15s512740 0.3 1019353